Year,Month,Day,Hour,Minute,Value (Times are PST for insolation in W/m^2)
2015,10,12,00,00,0.00
2015,10,12,00,01,0.00
2015,10,12,00,02,0.00
2015,10,12,00,03,0.00
2015,10,12,00,04,0.00
2015,10,12,00,05,0.00
2015,10,12,00,06,0.00
2015,10,12,00,07,0.00
2015,10,12,00,08,0.00
2015,10,12,00,09,0.00
2015,10,12,00,10,0.00
2015,10,12,00,11,0.00
2015,10,12,00,12,0.00
2015,10,12,00,13,0.00
2015,10,12,00,14,0.00
2015,10,12,00,15,0.00
2015,10,12,00,16,0.00
2015,10,12,00,17,0.00
2015,10,12,00,18,0.00
2015,10,12,00,19,0.00
2015,10,12,00,20,0.00
2015,10,12,00,21,0.00
2015,10,12,00,22,0.00
2015,10,12,00,23,0.00
2015,10,12,00,24,0.00
2015,10,12,00,25,0.00
2015,10,12,00,26,0.00
2015,10,12,00,27,0.00
2015,10,12,00,28,0.00
2015,10,12,00,29,0.00
2015,10,12,00,30,0.00
2015,10,12,00,31,0.00
2015,10,12,00,32,0.00
2015,10,12,00,33,0.00
2015,10,12,00,34,0.00
2015,10,12,00,35,0.00
2015,10,12,00,36,0.00
2015,10,12,00,37,0.00
2015,10,12,00,38,0.00
2015,10,12,00,39,0.00
2015,10,12,00,40,0.00
2015,10,12,00,41,0.00
2015,10,12,00,42,0.00
2015,10,12,00,43,0.00
2015,10,12,00,44,0.00
2015,10,12,00,45,0.00
2015,10,12,00,46,0.00
2015,10,12,00,47,0.00
2015,10,12,00,48,0.00
2015,10,12,00,49,0.00
2015,10,12,00,50,0.00
2015,10,12,00,51,0.00
2015,10,12,00,52,0.00
2015,10,12,00,53,0.00
2015,10,12,00,54,0.00
2015,10,12,00,55,0.00
2015,10,12,00,56,0.00
2015,10,12,00,57,0.00
2015,10,12,00,58,0.00
2015,10,12,00,59,0.00
2015,10,12,01,00,0.00
2015,10,12,01,01,0.00
2015,10,12,01,02,0.00
2015,10,12,01,03,0.00
2015,10,12,01,04,0.00
2015,10,12,01,05,0.00
2015,10,12,01,06,0.00
2015,10,12,01,07,0.00
2015,10,12,01,08,0.00
2015,10,12,01,09,0.00
2015,10,12,01,10,0.00
2015,10,12,01,11,0.00
2015,10,12,01,12,0.00
2015,10,12,01,13,0.00
2015,10,12,01,14,0.00
2015,10,12,01,15,0.00
2015,10,12,01,16,0.00
2015,10,12,01,17,0.00
2015,10,12,01,18,0.00
2015,10,12,01,19,0.00
2015,10,12,01,20,0.00
2015,10,12,01,21,0.00
2015,10,12,01,22,0.00
2015,10,12,01,23,0.00
2015,10,12,01,24,0.00
2015,10,12,01,25,0.00
2015,10,12,01,26,0.00
2015,10,12,01,27,0.00
2015,10,12,01,28,0.00
2015,10,12,01,29,0.00
2015,10,12,01,30,0.00
2015,10,12,01,31,0.00
2015,10,12,01,32,0.00
2015,10,12,01,33,0.00
2015,10,12,01,34,0.00
2015,10,12,01,35,0.00
2015,10,12,01,36,0.00
2015,10,12,01,37,0.00
2015,10,12,01,38,0.00
2015,10,12,01,39,0.00
2015,10,12,01,40,0.00
2015,10,12,01,41,0.00
2015,10,12,01,42,0.00
2015,10,12,01,43,0.00
2015,10,12,01,44,0.00
2015,10,12,01,45,0.00
2015,10,12,01,46,0.00
2015,10,12,01,47,0.00
2015,10,12,01,48,0.00
2015,10,12,01,49,0.00
2015,10,12,01,50,0.00
2015,10,12,01,51,0.00
2015,10,12,01,52,0.00
2015,10,12,01,53,0.00
2015,10,12,01,54,0.00
2015,10,12,01,55,0.00
2015,10,12,01,56,0.00
2015,10,12,01,57,0.00
2015,10,12,01,58,0.00
2015,10,12,01,59,0.00
2015,10,12,02,00,0.00
2015,10,12,02,01,0.00
2015,10,12,02,02,0.00
2015,10,12,02,03,0.00
2015,10,12,02,04,0.00
2015,10,12,02,05,0.00
2015,10,12,02,06,0.00
2015,10,12,02,07,0.00
2015,10,12,02,08,0.00
2015,10,12,02,09,0.00
2015,10,12,02,10,0.00
2015,10,12,02,11,0.00
2015,10,12,02,12,0.00
2015,10,12,02,13,0.00
2015,10,12,02,14,0.00
2015,10,12,02,15,0.00
2015,10,12,02,16,0.00
2015,10,12,02,17,0.00
2015,10,12,02,18,0.00
2015,10,12,02,19,0.00
2015,10,12,02,20,0.00
2015,10,12,02,21,0.00
2015,10,12,02,22,0.00
2015,10,12,02,23,0.00
2015,10,12,02,24,0.00
2015,10,12,02,25,0.00
2015,10,12,02,26,0.00
2015,10,12,02,27,0.00
2015,10,12,02,28,0.00
2015,10,12,02,29,0.00
2015,10,12,02,30,0.00
2015,10,12,02,31,0.00
2015,10,12,02,32,0.00
2015,10,12,02,33,0.00
2015,10,12,02,34,0.00
2015,10,12,02,35,0.00
2015,10,12,02,36,0.00
2015,10,12,02,37,0.00
2015,10,12,02,38,0.00
2015,10,12,02,39,0.00
2015,10,12,02,40,0.00
2015,10,12,02,41,0.00
2015,10,12,02,42,0.00
2015,10,12,02,43,0.00
2015,10,12,02,44,0.00
2015,10,12,02,45,0.00
2015,10,12,02,46,0.00
2015,10,12,02,47,0.00
2015,10,12,02,48,0.00
2015,10,12,02,49,0.00
2015,10,12,02,50,0.00
2015,10,12,02,51,0.00
2015,10,12,02,52,0.00
2015,10,12,02,53,0.00
2015,10,12,02,54,0.00
2015,10,12,02,55,0.00
2015,10,12,02,56,0.00
2015,10,12,02,57,0.00
2015,10,12,02,58,0.00
2015,10,12,02,59,0.00
2015,10,12,03,00,0.00
2015,10,12,03,01,0.00
2015,10,12,03,02,0.00
2015,10,12,03,03,0.00
2015,10,12,03,04,0.00
2015,10,12,03,05,0.00
2015,10,12,03,06,0.00
2015,10,12,03,07,0.00
2015,10,12,03,08,0.00
2015,10,12,03,09,0.00
2015,10,12,03,10,0.00
2015,10,12,03,11,0.00
2015,10,12,03,12,0.00
2015,10,12,03,13,0.00
2015,10,12,03,14,0.00
2015,10,12,03,15,0.00
2015,10,12,03,16,0.00
2015,10,12,03,17,0.00
2015,10,12,03,18,0.00
2015,10,12,03,19,0.00
2015,10,12,03,20,0.00
2015,10,12,03,21,0.00
2015,10,12,03,22,0.00
2015,10,12,03,23,0.00
2015,10,12,03,24,0.00
2015,10,12,03,25,0.00
2015,10,12,03,26,0.00
2015,10,12,03,27,0.00
2015,10,12,03,28,0.00
2015,10,12,03,29,0.00
2015,10,12,03,30,0.00
2015,10,12,03,31,0.00
2015,10,12,03,32,0.00
2015,10,12,03,33,0.00
2015,10,12,03,34,0.00
2015,10,12,03,35,0.00
2015,10,12,03,36,0.00
2015,10,12,03,37,0.00
2015,10,12,03,38,0.00
2015,10,12,03,39,0.00
2015,10,12,03,40,0.00
2015,10,12,03,41,0.00
2015,10,12,03,42,0.00
2015,10,12,03,43,0.00
2015,10,12,03,44,0.00
2015,10,12,03,45,0.00
2015,10,12,03,46,0.00
2015,10,12,03,47,0.00
2015,10,12,03,48,0.00
2015,10,12,03,49,0.00
2015,10,12,03,50,0.00
2015,10,12,03,51,0.00
2015,10,12,03,52,0.00
2015,10,12,03,53,0.00
2015,10,12,03,54,0.00
2015,10,12,03,55,0.00
2015,10,12,03,56,0.00
2015,10,12,03,57,0.00
2015,10,12,03,58,0.00
2015,10,12,03,59,0.00
2015,10,12,04,00,0.00
2015,10,12,04,01,0.00
2015,10,12,04,02,0.00
2015,10,12,04,03,0.00
2015,10,12,04,04,0.00
2015,10,12,04,05,0.00
2015,10,12,04,06,0.00
2015,10,12,04,08,0.00
2015,10,12,04,09,0.00
2015,10,12,04,10,0.00
2015,10,12,04,11,0.00
2015,10,12,04,12,0.00
2015,10,12,04,13,0.00
2015,10,12,04,14,0.00
2015,10,12,04,15,0.00
2015,10,12,04,16,0.00
2015,10,12,04,17,0.00
2015,10,12,04,18,0.00
2015,10,12,04,19,0.00
2015,10,12,04,20,0.00
2015,10,12,04,21,0.00
2015,10,12,04,22,0.00
2015,10,12,04,23,0.00
2015,10,12,04,24,0.00
2015,10,12,04,25,0.00
2015,10,12,04,26,0.00
2015,10,12,04,27,0.00
2015,10,12,04,28,0.00
2015,10,12,04,29,0.00
2015,10,12,04,30,0.00
2015,10,12,04,31,0.00
2015,10,12,04,32,0.00
2015,10,12,04,33,0.00
2015,10,12,04,34,0.00
2015,10,12,04,35,0.00
2015,10,12,04,36,0.00
2015,10,12,04,37,0.00
2015,10,12,04,38,0.00
2015,10,12,04,39,0.00
2015,10,12,04,40,0.00
2015,10,12,04,41,0.00
2015,10,12,04,42,0.00
2015,10,12,04,43,0.00
2015,10,12,04,44,0.00
2015,10,12,04,45,0.00
2015,10,12,04,46,0.00
2015,10,12,04,47,0.00
2015,10,12,04,48,0.00
2015,10,12,04,49,0.00
2015,10,12,04,50,0.00
2015,10,12,04,51,0.00
2015,10,12,04,52,0.00
2015,10,12,04,53,0.00
2015,10,12,04,54,0.00
2015,10,12,04,55,0.00
2015,10,12,04,56,0.00
2015,10,12,04,57,0.00
2015,10,12,04,58,0.00
2015,10,12,04,59,0.00
2015,10,12,05,00,0.00
2015,10,12,05,01,0.00
2015,10,12,05,02,0.00
2015,10,12,05,03,0.00
2015,10,12,05,04,0.00
2015,10,12,05,05,0.00
2015,10,12,05,06,0.00
2015,10,12,05,07,0.00
2015,10,12,05,08,0.00
2015,10,12,05,09,0.00
2015,10,12,05,10,0.00
2015,10,12,05,11,0.00
2015,10,12,05,12,0.00
2015,10,12,05,13,0.00
2015,10,12,05,14,0.00
2015,10,12,05,15,0.00
2015,10,12,05,16,0.00
2015,10,12,05,17,0.00
2015,10,12,05,18,0.00
2015,10,12,05,19,0.00
2015,10,12,05,20,0.00
2015,10,12,05,21,0.00
2015,10,12,05,22,0.00
2015,10,12,05,23,0.00
2015,10,12,05,24,0.00
2015,10,12,05,25,0.00
2015,10,12,05,26,0.00
2015,10,12,05,27,0.00
2015,10,12,05,28,0.00
2015,10,12,05,29,0.00
2015,10,12,05,30,0.00
2015,10,12,05,31,0.00
2015,10,12,05,32,0.00
2015,10,12,05,33,0.00
2015,10,12,05,34,0.00
2015,10,12,05,35,0.00
2015,10,12,05,36,0.00
2015,10,12,05,37,0.00
2015,10,12,05,38,0.00
2015,10,12,05,39,0.00
2015,10,12,05,40,0.00
2015,10,12,05,41,0.00
2015,10,12,05,42,0.00
2015,10,12,05,43,0.00
2015,10,12,05,44,0.00
2015,10,12,05,45,0.00
2015,10,12,05,46,0.00
2015,10,12,05,47,0.00
2015,10,12,05,48,0.00
2015,10,12,05,49,0.00
2015,10,12,05,50,0.00
2015,10,12,05,51,0.00
2015,10,12,05,52,0.00
2015,10,12,05,53,0.00
2015,10,12,05,54,0.00
2015,10,12,05,55,0.00
2015,10,12,05,56,0.00
2015,10,12,05,57,0.00
2015,10,12,05,58,0.00
2015,10,12,05,59,0.00
2015,10,12,06,00,0.00
2015,10,12,06,01,0.00
2015,10,12,06,02,0.00
2015,10,12,06,03,0.00
2015,10,12,06,04,0.00
2015,10,12,06,05,0.00
2015,10,12,06,06,0.00
2015,10,12,06,07,0.00
2015,10,12,06,08,0.00
2015,10,12,06,09,0.00
2015,10,12,06,10,0.00
2015,10,12,06,11,0.00
2015,10,12,06,12,0.00
2015,10,12,06,13,0.00
2015,10,12,06,14,0.00
2015,10,12,06,15,0.00
2015,10,12,06,16,0.00
2015,10,12,06,17,0.00
2015,10,12,06,18,0.00
2015,10,12,06,19,0.00
2015,10,12,06,20,0.00
2015,10,12,06,21,0.00
2015,10,12,06,22,0.00
2015,10,12,06,23,0.00
2015,10,12,06,24,0.00
2015,10,12,06,25,0.00
2015,10,12,06,26,0.00
2015,10,12,06,27,0.00
2015,10,12,06,28,0.00
2015,10,12,06,29,0.00
2015,10,12,06,30,0.00
2015,10,12,06,31,0.00
2015,10,12,06,32,0.00
2015,10,12,06,33,0.00
2015,10,12,06,34,0.00
2015,10,12,06,35,0.00
2015,10,12,06,36,0.00
2015,10,12,06,37,0.00
2015,10,12,06,38,0.00
2015,10,12,06,39,0.00
2015,10,12,06,40,0.00
2015,10,12,06,41,0.00
2015,10,12,06,42,0.00
2015,10,12,06,43,0.00
2015,10,12,06,44,0.00
2015,10,12,06,45,0.00
2015,10,12,06,46,0.00
2015,10,12,06,47,0.00
2015,10,12,06,48,0.00
2015,10,12,06,49,0.00
2015,10,12,06,50,0.00
2015,10,12,06,51,0.00
2015,10,12,06,52,0.00
2015,10,12,06,53,0.00
2015,10,12,06,54,0.00
2015,10,12,06,55,0.00
2015,10,12,06,56,0.00
2015,10,12,06,57,0.00
2015,10,12,06,58,0.00
2015,10,12,06,59,0.00
2015,10,12,07,00,0.00
2015,10,12,07,01,0.00
2015,10,12,07,02,0.00
2015,10,12,07,03,0.00
2015,10,12,07,04,0.00
2015,10,12,07,05,0.00
2015,10,12,07,06,0.00
2015,10,12,07,07,0.00
2015,10,12,07,08,0.00
2015,10,12,07,09,0.00
2015,10,12,07,10,0.00
2015,10,12,07,11,0.00
2015,10,12,07,12,0.00
2015,10,12,07,13,0.00
2015,10,12,07,14,0.00
2015,10,12,07,15,0.00
2015,10,12,07,16,0.00
2015,10,12,07,17,0.00
2015,10,12,07,18,0.00
2015,10,12,07,19,0.00
2015,10,12,07,20,0.00
2015,10,12,07,21,0.00
2015,10,12,07,22,0.00
2015,10,12,07,23,0.00
2015,10,12,07,24,0.00
2015,10,12,07,25,0.00
2015,10,12,07,26,0.00
2015,10,12,07,27,0.00
2015,10,12,07,28,0.00
2015,10,12,07,29,0.00
2015,10,12,07,30,0.00
2015,10,12,07,31,0.00
2015,10,12,07,32,0.00
2015,10,12,07,33,0.00
2015,10,12,07,34,0.00
2015,10,12,07,35,0.00
2015,10,12,07,36,0.00
2015,10,12,07,37,0.00
2015,10,12,07,38,0.00
2015,10,12,07,39,0.00
2015,10,12,07,40,0.00
2015,10,12,07,41,0.00
2015,10,12,07,42,0.00
2015,10,12,07,43,0.00
2015,10,12,07,44,0.00
2015,10,12,07,45,0.00
2015,10,12,07,46,0.00
2015,10,12,07,47,0.00
2015,10,12,07,48,0.00
2015,10,12,07,49,0.00
2015,10,12,07,50,0.00
2015,10,12,07,51,0.00
2015,10,12,07,52,0.00
2015,10,12,07,53,0.00
2015,10,12,07,54,0.00
2015,10,12,07,55,0.00
2015,10,12,07,56,0.00
2015,10,12,07,57,0.00
2015,10,12,07,58,0.00
2015,10,12,07,59,0.00
2015,10,12,08,00,0.00
2015,10,12,08,01,0.00
2015,10,12,08,02,0.00
2015,10,12,08,03,0.00
2015,10,12,08,04,0.00
2015,10,12,08,05,0.00
2015,10,12,08,06,0.00
2015,10,12,08,07,0.00
2015,10,12,08,08,0.00
2015,10,12,08,09,0.00
2015,10,12,08,10,0.00
2015,10,12,08,11,0.00
2015,10,12,08,12,0.00
2015,10,12,08,13,0.00
2015,10,12,08,14,0.00
2015,10,12,08,15,0.00
2015,10,12,08,16,0.00
2015,10,12,08,17,0.00
2015,10,12,08,18,0.00
2015,10,12,08,19,0.00
2015,10,12,08,20,0.00
2015,10,12,08,21,0.00
2015,10,12,08,22,0.00
2015,10,12,08,23,0.00
2015,10,12,08,24,0.00
2015,10,12,08,25,0.00
2015,10,12,08,26,0.00
2015,10,12,08,27,0.00
2015,10,12,08,28,7.20
2015,10,12,08,29,9.00
2015,10,12,08,30,8.20
2015,10,12,08,31,7.00
2015,10,12,08,32,7.00
2015,10,12,08,33,5.40
2015,10,12,08,34,6.90
2015,10,12,08,35,9.00
2015,10,12,08,36,9.00
2015,10,12,08,37,9.00
2015,10,12,08,38,10.00
2015,10,12,08,39,14.30
2015,10,12,08,40,17.60
2015,10,12,08,41,16.20
2015,10,12,08,42,14.00
2015,10,12,08,43,14.50
2015,10,12,08,44,16.00
2015,10,12,08,45,16.00
2015,10,12,08,46,19.30
2015,10,12,08,47,24.70
2015,10,12,08,48,23.30
2015,10,12,08,49,23.00
2015,10,12,08,50,22.50
2015,10,12,08,51,20.30
2015,10,12,08,52,18.50
2015,10,12,08,53,18.00
2015,10,12,08,54,18.00
2015,10,12,08,55,19.00
2015,10,12,08,56,21.60
2015,10,12,08,57,25.00
2015,10,12,08,58,25.00
2015,10,12,08,59,25.50
2015,10,12,09,00,28.70
2015,10,12,09,01,33.80
2015,10,12,09,02,39.40
2015,10,12,09,03,48.30
2015,10,12,09,04,57.80
2015,10,12,09,05,65.20
2015,10,12,09,06,71.60
2015,10,12,09,07,78.40
2015,10,12,09,08,82.60
2015,10,12,09,09,84.00
2015,10,12,09,10,85.60
2015,10,12,09,11,83.00
2015,10,12,09,12,84.20
2015,10,12,09,13,87.00
2015,10,12,09,14,84.70
2015,10,12,09,15,83.80
2015,10,12,09,16,95.90
2015,10,12,09,17,106.20
2015,10,12,09,18,115.10
2015,10,12,09,19,124.70
2015,10,12,09,20,155.40
2015,10,12,09,21,160.30
2015,10,12,09,22,158.00
2015,10,12,09,23,155.10
2015,10,12,09,24,145.60
2015,10,12,09,25,159.90
2015,10,12,09,26,177.70
2015,10,12,09,27,177.30
2015,10,12,09,28,161.90
2015,10,12,09,29,149.80
2015,10,12,09,30,137.80
2015,10,12,09,31,124.70
2015,10,12,09,32,121.70
2015,10,12,09,33,113.50
2015,10,12,09,34,101.80
2015,10,12,09,35,93.20
2015,10,12,09,36,87.10
2015,10,12,09,37,83.30
2015,10,12,09,38,83.00
2015,10,12,09,39,83.00
2015,10,12,09,40,82.20
2015,10,12,09,41,82.50
2015,10,12,09,42,86.60
2015,10,12,09,43,86.50
2015,10,12,09,44,83.20
2015,10,12,09,45,79.60
2015,10,12,09,46,85.10
2015,10,12,09,47,90.00
2015,10,12,09,48,86.90
2015,10,12,09,49,79.00
2015,10,12,09,50,71.40
2015,10,12,09,51,70.20
2015,10,12,09,52,75.80
2015,10,12,09,53,72.20
2015,10,12,09,54,63.70
2015,10,12,09,55,58.00
2015,10,12,09,56,56.70
2015,10,12,09,57,57.50
2015,10,12,09,58,59.80
2015,10,12,09,59,62.60
2015,10,12,10,00,67.80
2015,10,12,10,01,72.60
2015,10,12,10,02,80.40
2015,10,12,10,03,87.80
2015,10,12,10,04,90.70
2015,10,12,10,05,88.30
2015,10,12,10,06,85.70
2015,10,12,10,07,83.70
2015,10,12,10,08,81.50
2015,10,12,10,09,80.90
2015,10,12,10,10,87.40
2015,10,12,10,11,92.20
2015,10,12,10,12,93.00
2015,10,12,10,13,93.30
2015,10,12,10,14,94.50
2015,10,12,10,15,92.20
2015,10,12,10,16,92.00
2015,10,12,10,17,93.00
2015,10,12,10,18,91.40
2015,10,12,10,19,88.00
2015,10,12,10,20,77.50
2015,10,12,10,21,68.50
2015,10,12,10,22,67.80
2015,10,12,10,23,72.60
2015,10,12,10,24,80.40
2015,10,12,10,25,86.90
2015,10,12,10,26,88.00
2015,10,12,10,27,87.60
2015,10,12,10,28,83.70
2015,10,12,10,29,83.40
2015,10,12,10,30,86.10
2015,10,12,10,31,91.30
2015,10,12,10,32,99.70
2015,10,12,10,33,108.00
2015,10,12,10,34,116.60
2015,10,12,10,35,120.30
2015,10,12,10,36,121.00
2015,10,12,10,37,119.40
2015,10,12,10,38,114.90
2015,10,12,10,39,110.00
2015,10,12,10,40,107.20
2015,10,12,10,41,111.60
2015,10,12,10,42,116.50
2015,10,12,10,43,119.10
2015,10,12,10,44,123.10
2015,10,12,10,45,126.90
2015,10,12,10,46,129.50
2015,10,12,10,47,128.20
2015,10,12,10,48,124.40
2015,10,12,10,49,119.70
2015,10,12,10,50,115.30
2015,10,12,10,51,113.50
2015,10,12,10,52,111.70
2015,10,12,10,53,109.50
2015,10,12,10,54,105.50
2015,10,12,10,55,101.70
2015,10,12,10,56,99.50
2015,10,12,10,57,97.60
2015,10,12,10,58,97.50
2015,10,12,10,59,98.00
2015,10,12,11,00,99.50
2015,10,12,11,01,100.00
2015,10,12,11,02,97.90
2015,10,12,11,03,96.00
2015,10,12,11,04,91.10
2015,10,12,11,05,85.40
2015,10,12,11,06,80.50
2015,10,12,11,07,77.50
2015,10,12,11,08,78.80
2015,10,12,11,09,79.30
2015,10,12,11,10,81.50
2015,10,12,11,11,83.40
2015,10,12,11,12,84.00
2015,10,12,11,13,84.00
2015,10,12,11,14,85.50
2015,10,12,11,15,86.00
2015,10,12,11,16,84.00
2015,10,12,11,17,83.70
2015,10,12,11,18,82.30
2015,10,12,11,19,80.00
2015,10,12,11,20,77.70
2015,10,12,11,21,76.20
2015,10,12,11,22,74.20
2015,10,12,11,23,72.00
2015,10,12,11,24,71.50
2015,10,12,11,25,70.00
2015,10,12,11,26,70.00
2015,10,12,11,27,70.00
2015,10,12,11,28,71.50
2015,10,12,11,29,72.00
2015,10,12,11,30,72.30
2015,10,12,11,31,74.00
2015,10,12,11,32,74.70
2015,10,12,11,33,76.00
2015,10,12,11,34,76.60
2015,10,12,11,35,77.00
2015,10,12,11,36,77.00
2015,10,12,11,37,77.30
2015,10,12,11,38,79.50
2015,10,12,11,39,81.70
2015,10,12,11,40,84.60
2015,10,12,11,41,87.30
2015,10,12,11,42,90.30
2015,10,12,11,43,96.40
2015,10,12,11,44,98.00
2015,10,12,11,45,98.00
2015,10,12,11,46,98.00
2015,10,12,11,47,98.00
2015,10,12,11,48,98.00
2015,10,12,11,49,97.20
2015,10,12,11,50,95.10
2015,10,12,11,51,92.80
2015,10,12,11,52,90.20
2015,10,12,11,53,87.20
2015,10,12,11,54,85.00
2015,10,12,11,55,83.40
2015,10,12,11,56,79.90
2015,10,12,11,57,79.00
2015,10,12,11,58,77.00
2015,10,12,11,59,77.50
2015,10,12,12,00,79.80
2015,10,12,12,01,82.00
2015,10,12,12,02,84.90
2015,10,12,12,03,87.50
2015,10,12,12,04,89.70
2015,10,12,12,05,90.00
2015,10,12,12,06,90.30
2015,10,12,12,07,91.00
2015,10,12,12,08,91.00
2015,10,12,12,09,92.30
2015,10,12,12,10,96.10
2015,10,12,12,11,99.60
2015,10,12,12,12,104.80
2015,10,12,12,13,112.80
2015,10,12,12,14,120.90
2015,10,12,12,15,128.60
2015,10,12,12,16,134.00
2015,10,12,12,17,138.10
2015,10,12,12,18,139.00
2015,10,12,12,19,138.70
2015,10,12,12,20,136.50
2015,10,12,12,21,135.00
2015,10,12,12,22,134.50
2015,10,12,12,23,134.60
2015,10,12,12,24,136.60
2015,10,12,12,25,138.80
2015,10,12,12,26,141.10
2015,10,12,12,27,142.50
2015,10,12,12,28,144.00
2015,10,12,12,29,146.10
2015,10,12,12,30,148.60
2015,10,12,12,31,152.00
2015,10,12,12,32,154.80
2015,10,12,12,33,156.00
2015,10,12,12,34,155.70
2015,10,12,12,35,154.30
2015,10,12,12,36,153.00
2015,10,12,12,37,153.00
2015,10,12,12,38,153.00
2015,10,12,12,39,154.70
2015,10,12,12,40,158.20
2015,10,12,12,41,160.00
2015,10,12,12,42,160.70
2015,10,12,12,43,161.00
2015,10,12,12,44,160.00
2015,10,12,12,45,160.00
2015,10,12,12,46,158.20
2015,10,12,12,47,155.90
2015,10,12,12,48,155.00
2015,10,12,12,49,154.30
2015,10,12,12,50,153.00
2015,10,12,12,51,153.00
2015,10,12,12,52,153.00
2015,10,12,12,53,153.00
2015,10,12,12,54,153.30
2015,10,12,12,55,155.00
2015,10,12,12,56,155.00
2015,10,12,12,57,155.50
2015,10,12,12,58,155.40
2015,10,12,12,59,155.00
2015,10,12,13,00,155.00
2015,10,12,13,01,156.20
2015,10,12,13,02,158.50
2015,10,12,13,03,161.10
2015,10,12,13,04,166.00
2015,10,12,13,05,171.00
2015,10,12,13,06,175.00
2015,10,12,13,07,178.60
2015,10,12,13,08,183.30
2015,10,12,13,09,187.00
2015,10,12,13,10,191.90
2015,10,12,13,11,196.90
2015,10,12,13,12,200.90
2015,10,12,13,13,205.00
2015,10,12,13,14,210.30
2015,10,12,13,15,216.60
2015,10,12,13,16,222.80
2015,10,12,13,17,231.60
2015,10,12,13,18,240.80
2015,10,12,13,19,263.60
2015,10,12,13,20,272.50
2015,10,12,13,21,286.20
2015,10,12,13,22,280.70
2015,10,12,13,23,294.00
2015,10,12,13,24,294.00
2015,10,12,13,25,294.00
2015,10,12,13,26,294.00
2015,10,12,13,27,288.60
2015,10,12,13,28,281.70
2015,10,12,13,29,277.00
2015,10,12,13,30,269.40
2015,10,12,13,31,264.60
2015,10,12,13,32,264.50
2015,10,12,13,33,264.40
2015,10,12,13,34,266.30
2015,10,12,13,35,273.20
2015,10,12,13,36,276.70
2015,10,12,13,37,268.50
2015,10,12,13,38,267.00
2015,10,12,13,39,258.70
2015,10,12,13,40,247.90
2015,10,12,13,41,242.10
2015,10,12,13,42,241.00
2015,10,12,13,43,245.00
2015,10,12,13,44,253.30
2015,10,12,13,45,262.00
2015,10,12,13,46,267.10
2015,10,12,13,47,267.70
2015,10,12,13,48,264.70
2015,10,12,13,49,258.70
2015,10,12,13,50,258.30
2015,10,12,13,51,261.00
2015,10,12,13,52,264.00
2015,10,12,13,53,259.70
2015,10,12,13,54,251.90
2015,10,12,13,55,245.60
2015,10,12,13,56,239.60
2015,10,12,13,57,236.80
2015,10,12,13,58,242.50
2015,10,12,13,59,235.10
2015,10,12,14,00,224.00
2015,10,12,14,01,218.60
2015,10,12,14,02,214.50
2015,10,12,14,03,215.80
2015,10,12,14,04,230.90
2015,10,12,14,05,318.00
2015,10,12,14,06,318.00
2015,10,12,14,07,295.40
2015,10,12,14,08,244.60
2015,10,12,14,09,212.00
2015,10,12,14,10,200.90
2015,10,12,14,11,195.30
2015,10,12,14,12,197.50
2015,10,12,14,13,197.50
2015,10,12,14,14,193.40
2015,10,12,14,15,192.00
2015,10,12,14,16,199.40
2015,10,12,14,17,186.90
2015,10,12,14,18,171.30
2015,10,12,14,19,167.00
2015,10,12,14,20,177.40
2015,10,12,14,21,237.00
2015,10,12,14,22,301.20
2015,10,12,14,23,325.60
2015,10,12,14,24,258.80
2015,10,12,14,25,239.00
2015,10,12,14,26,239.00
2015,10,12,14,27,239.00
2015,10,12,14,28,239.00
2015,10,12,14,29,247.80
2015,10,12,14,30,253.00
2015,10,12,14,31,253.00
2015,10,12,14,32,517.00
2015,10,12,14,33,441.80
2015,10,12,14,34,234.00
2015,10,12,14,35,213.30
2015,10,12,14,36,183.00
2015,10,12,14,37,183.00
2015,10,12,14,38,183.00
2015,10,12,14,39,173.70
2015,10,12,14,40,123.10
2015,10,12,14,41,127.60
2015,10,12,14,42,120.00
2015,10,12,14,43,120.00
2015,10,12,14,44,120.00
2015,10,12,14,45,102.20
2015,10,12,14,46,89.40
2015,10,12,14,47,86.00
2015,10,12,14,48,80.10
2015,10,12,14,49,70.00
2015,10,12,14,50,265.80
2015,10,12,14,51,381.00
2015,10,12,14,52,381.00
2015,10,12,14,53,381.00
2015,10,12,14,54,381.00
2015,10,12,14,55,421.40
2015,10,12,14,56,490.00
2015,10,12,14,57,490.00
2015,10,12,14,58,455.80
2015,10,12,14,59,446.00
2015,10,12,15,00,446.00
2015,10,12,15,01,356.30
2015,10,12,15,02,100.00
2015,10,12,15,03,100.00
2015,10,12,15,04,295.80
2015,10,12,15,05,411.00
2015,10,12,15,06,120.30
2015,10,12,15,07,106.60
2015,10,12,15,08,81.00
2015,10,12,15,09,81.00
2015,10,12,15,10,81.00
2015,10,12,15,11,81.00
2015,10,12,15,12,81.00
2015,10,12,15,13,50.80
2015,10,12,15,14,52.00
2015,10,12,15,15,70.20
2015,10,12,15,16,105.10
2015,10,12,15,17,79.60
2015,10,12,15,18,58.90
2015,10,12,15,19,101.00
2015,10,12,15,20,116.00
2015,10,12,15,21,467.20
2015,10,12,15,22,453.90
2015,10,12,15,23,445.40
2015,10,12,15,24,446.00
2015,10,12,15,25,229.40
2015,10,12,15,26,100.40
2015,10,12,15,27,67.10
2015,10,12,15,28,62.30
2015,10,12,15,29,47.00
2015,10,12,15,30,51.10
2015,10,12,15,31,79.80
2015,10,12,15,32,122.00
2015,10,12,15,33,105.40
2015,10,12,15,34,95.00
2015,10,12,15,35,90.70
2015,10,12,15,36,56.00
2015,10,12,15,37,56.00
2015,10,12,15,38,125.30
2015,10,12,15,39,200.00
2015,10,12,15,40,108.10
2015,10,12,15,41,68.00
2015,10,12,15,42,54.40
2015,10,12,15,43,55.70
2015,10,12,15,44,49.70
2015,10,12,15,45,50.00
2015,10,12,15,46,49.00
2015,10,12,15,47,52.00
2015,10,12,15,48,55.70
2015,10,12,15,49,55.70
2015,10,12,15,50,52.00
2015,10,12,15,51,47.90
2015,10,12,15,52,46.50
2015,10,12,15,53,46.40
2015,10,12,15,54,48.20
2015,10,12,15,55,47.20
2015,10,12,15,56,46.90
2015,10,12,15,57,46.30
2015,10,12,15,58,46.60
2015,10,12,15,59,45.00
2015,10,12,16,00,42.70
2015,10,12,16,01,45.00
2015,10,12,16,02,46.00
2015,10,12,16,03,45.70
2015,10,12,16,04,44.50
2015,10,12,16,05,46.00
2015,10,12,16,06,46.00
2015,10,12,16,07,44.70
2015,10,12,16,08,42.50
2015,10,12,16,09,42.00
2015,10,12,16,10,43.80
2015,10,12,16,11,41.50
2015,10,12,16,12,38.90
2015,10,12,16,13,37.00
2015,10,12,16,14,37.00
2015,10,12,16,15,37.00
2015,10,12,16,16,37.00
2015,10,12,16,17,37.00
2015,10,12,16,18,37.50
2015,10,12,16,19,39.00
2015,10,12,16,20,39.00
2015,10,12,16,21,39.00
2015,10,12,16,22,39.80
2015,10,12,16,23,40.00
2015,10,12,16,24,40.00
2015,10,12,16,25,40.00
2015,10,12,16,26,40.70
2015,10,12,16,27,43.00
2015,10,12,16,28,44.00
2015,10,12,16,29,44.00
2015,10,12,16,30,44.00
2015,10,12,16,31,46.10
2015,10,12,16,32,47.00
2015,10,12,16,33,46.60
2015,10,12,16,34,46.00
2015,10,12,16,35,44.80
2015,10,12,16,36,42.40
2015,10,12,16,37,42.00
2015,10,12,16,38,40.00
2015,10,12,16,39,40.00
2015,10,12,16,40,39.60
2015,10,12,16,41,39.00
2015,10,12,16,42,39.60
2015,10,12,16,43,40.00
2015,10,12,16,44,40.00
2015,10,12,16,45,40.00
2015,10,12,16,46,40.00
2015,10,12,16,47,40.00
2015,10,12,16,48,40.00
2015,10,12,16,49,40.00
2015,10,12,16,50,39.30
2015,10,12,16,51,37.30
2015,10,12,16,52,36.80
2015,10,12,16,53,35.00
2015,10,12,16,54,35.00
2015,10,12,16,55,35.00
2015,10,12,16,56,35.00
2015,10,12,16,57,35.00
2015,10,12,16,58,33.30
2015,10,12,16,59,31.80
2015,10,12,17,00,30.00
2015,10,12,17,01,30.00
2015,10,12,17,02,29.00
2015,10,12,17,03,28.00
2015,10,12,17,04,26.50
2015,10,12,17,05,26.00
2015,10,12,17,06,25.00
2015,10,12,17,07,25.00
2015,10,12,17,08,25.00
2015,10,12,17,09,25.00
2015,10,12,17,10,25.00
2015,10,12,17,11,25.00
2015,10,12,17,12,25.90
2015,10,12,17,13,26.00
2015,10,12,17,14,26.00
2015,10,12,17,15,26.70
2015,10,12,17,16,28.00
2015,10,12,17,17,29.30
2015,10,12,17,18,30.00
2015,10,12,17,19,30.00
2015,10,12,17,20,28.00
2015,10,12,17,21,28.00
2015,10,12,17,22,28.00
2015,10,12,17,23,28.00
2015,10,12,17,24,26.80
2015,10,12,17,25,26.00
2015,10,12,17,26,25.10
2015,10,12,17,27,25.10
2015,10,12,17,28,26.00
2015,10,12,17,29,26.00
2015,10,12,17,30,27.00
2015,10,12,17,31,28.00
2015,10,12,17,32,28.00